CZ-6A DEB, 54292

Orbit data source: Space-Track

CZ-6A DEB, 54292 is space debris in SSO originally from a launch on Fri, 11 Nov 2022 UTC launched from the Taiyaun Space Center, China (TSC). Debris objects in space refer to the collection of defunct objects orbiting the Earth. Examples of debris include non-operational satellites, rocket bodies, and fragments generated from explosions, collisions, or faulty payload assembly.

Loading next visibility...
Identifier
54292, 2022-151AK
Orbit
SSO
Country
Flag of CNCN / PRC
Related business
Manufacturer
SAST
Mission
Spacecraft
Bus & Motor
Unknown
Mass
Unknown
Launch date (UTC)
2022-11-11 (4 years ago)
Launch vehicle
Unknown
Launch site
Taiyaun Space Center, China (TSC)
Object type
Payload
Rocket body
Debris
Shape & HBR
Unknown shape, 0.2 m
Radar Cross Section
Medium (>0.1 m² and <1 m²)

Expand to show TLE details & history
Last TLE update: 2 days ago

TLE from 2 days ago
0 CZ-6A DEB
1 54292U 22151AK  26171.41791336  .00000184  00000-0  13686-3 0  9994
2 54292  98.8720 165.6684 0062110 357.4919   2.5929 14.05785747184381
Epoch: 2026-06-20T10:01Z
TLE epoch observation values (Epoch: 2026-06-20T10:01:47.714Z)
Latitude
-0.00001°
Longitude
106.58677°
Altitude
831.715 km
Speed
7.46 km/s
True Right ascension
11h 02m 40s
True Declination
0° 00' 00"
Sunlit
Object was in daylight at epoch
Visualization orbit readout
Latitude
Unknown
Longitude
Unknown
Altitude
Unknown
Speed
Unknown
Apparent Right ascension
Unknown
Apparent Declination
Unknown
Sunlit
N/A
Visualization observer readout
Local Sidereal Time
21:35:49
Azimuth
Unknown
Elevation
Unknown
Doppler factor
Unknown
Orbital elements
Apogee altitude
916.039 km
Perigee altitude
825.99 km
Semi-major axis
7,249.151 km
Eccentricity
0.00621
Inclination
98.872°
RAAN
165.6684°
Arg. of periapsis
357.4919°
True anomaly
2.62535°
Mean anomaly
2.5929°
Eccentric anomaly
2.6091°
Mean motion
3.51651 °/min
Orbital period
102.37 mins
BSTAR
0.00013686
Loading maneuver chart data...
Computing Atmospheric mass density...
Loading historical data...
Loading historical data...
Loading historical data...
Loading historical data...
Loading historical data...
Loading historical data...
Loading historical data...

Documentation

Showing up to 5 results
|